Location: Unspecified
(0.0000°N, 0.0000°E)
Time: 01:25:15
(UTC+00:00)

Vanguard 3 - Pass Details

Date: 20 November 2019
Orbit: 508 x 3263 km, 33.3° (Epoch: 11 December)

Event Time Altitude Azimuth Distance (km) Brightness Sun altitude
Rises 13:07:45 0° 272° (W) 6,310 12.0 61.8°
Reaches altitude 10° 13:12:35 10° 282° (WNW) 5,627 11.8 61.0°
Maximum altitude 13:27:16 29° 336° (NNW) 4,731 11.3 58.2°
Drops below altitude 10° 13:43:01 10° 30° (NNE) 5,951 11.3 55.1°
Sets 13:48:28 0° 41° (NE) 6,702 11.5 54.0°
